Simultaneous Nadir Overpasses (SNOs) Predictions

Prediction of SNOs between METOP-B and NOAA-19 Satellite Orbit:

Table of predicted SNOs for the next 14.0 days since TLE Epoch: 4/27/2018
Index Date (METOP-B) Time (METOP-B) Lat,Lon (METOP-B) SZA (METOP-B ) Date (NOAA-19) Time (NOAA-19) Lat,Lon (NOAA-19) SZA (NOAA-19 ) Distance(km) Time Diff (sec)
1 05/05/2018 01:58:43 78.25, 159.52 62.17 05/05/2018 01:57:38 78.25, 159.64 62.17 2.85 65
2 05/05/2018 02:49:25 -78.24, -33.19 117.85 05/05/2018 02:48:38 -78.26, -33.18 117.83 2.65 47
3 05/05/2018 03:40:05 78.23, 134.08 62.13 05/05/2018 03:39:39 78.25, 134.18 62.15 2.94 26
4 05/05/2018 04:30:47 -78.22, -58.63 117.89 05/05/2018 04:30:39 -78.26, -58.63 117.86 3.77 8
5 05/05/2018 05:21:26 78.25, 108.86 62.14 05/05/2018 05:21:40 78.24, 108.73 62.12 3.37 14
6 05/05/2018 06:12:08 -78.24, -83.85 117.88 05/05/2018 06:12:39 -78.21, -83.86 117.91 3.63 31
7 05/05/2018 07:02:48 78.23, 83.42 62.10 05/05/2018 07:03:41 78.23, 83.27 62.10 3.52 53
8 05/05/2018 07:53:30 -78.23,-109.29 117.92 05/05/2018 07:54:40 -78.20,-109.32 117.94 2.60 70




NCC Satellite Simultaneous Nadir Overpasses (SNOs) Prediction Service
